Theta_e
314 313 313 313 312 312 312 316 316 314 312 311 309 308 307 305 303 300 300 300 304 308 312 310 310 314 314 314 315 317 320 322 324 322 324 322 322 322 320 323 325 327 331 333 335 336 335 335 335 335 335 334 333 334 332 332 333 335 335 334 334 332 331 332 333 333 332 333 332 333 333 333 333 332
313 315 315 314 313 315 313 314 316 314 314 310 310 310 309 308 304 301 301 301 304 306 309 310 311 311 314 315 316 319 320 321 322 322 324 324 324 323 318 317 318 321 324 326 327 330 334 335 335 335 335 334 334 333 333 334 333 333 333 332 330 327 328 331 333 333 333 333 334 334 332 333 333 333
315 315 315 314 314 315 315 314 313 316 314 311 311 309 311 311 308 306 304 301 304 309 307 308 312 312 312 315 314 318 318 320 319 320 322 322 324 324 320 318 316 317 317 318 319 319 325 330 332 333 334 334 334 334 334 334 334 333 330 328 326 325 326 330 331 331 332 333 335 335 334 333 333 332
316 314 313 314 313 314 314 314 313 315 314 313 310 310 311 310 309 308 305 304 305 307 309 309 313 313 313 314 313 314 317 321 321 316 317 319 322 323 323 319 318 317 315 315 315 314 317 323 326 328 329 330 330 330 332 331 325 322 324 325 325 323 325 330 331 331 332 334 335 333 333 333 334 333
315 315 314 314 314 314 314 314 314 314 314 313 312 311 310 310 309 309 307 305 306 307 308 310 312 312 314 312 313 313 314 314 314 316 313 316 319 320 320 321 317 315 315 313 313 313 312 314 315 319 324 326 324 323 325 320 317 321 323 322 322 320 319 325 331 332 333 334 334 334 333 334 334 333
316 315 314 315 315 314 313 313 313 313 313 314 312 311 311 310 310 311 309 306 304 305 306 308 310 310 312 310 310 310 310 310 313 312 310 311 313 315 318 318 319 315 314 313 312 312 311 311 311 311 318 323 317 313 314 313 313 316 318 316 315 315 314 315 323 330 332 333 333 334 334 334 332 331
315 314 315 315 315 315 313 313 313 313 312 313 313 313 312 311 310 311 311 307 306 306 307 307 307 309 310 310 311 311 312 313 313 310 309 311 313 316 315 318 318 314 313 312 311 311 311 310 310 310 313 314 315 313 312 311 310 310 311 312 311 311 311 311 315 322 328 331 333 333 331 329 328 328
315 314 314 315 315 315 313 313 313 314 313 312 314 314 313 312 312 311 311 310 308 307 306 308 309 309 308 309 311 313 314 313 311 311 311 311 311 311 316 317 318 317 312 311 311 310 310 309 309 309 310 310 311 311 311 310 310 309 309 309 309 309 309 309 309 311 314 319 324 324 320 323 328 328
317 315 314 314 314 314 313 313 313 313 313 314 313 313 313 312 312 313 312 311 310 308 307 308 308 309 308 310 311 312 311 311 310 311 312 312 311 311 311 319 321 317 312 311 311 310 309 308 309 309 309 309 310 310 310 310 309 309 308 308 307 307 308 308 307 307 307 307 308 309 311 313 316 322
318 317 316 316 315 314 313 313 314 314 313 314 313 312 312 312 312 311 311 312 311 310 309 308 309 308 309 308 308 309 311 310 309 309 309 309 311 312 311 313 318 321 317 314 313 309 307 307 307 307 308 309 309 309 309 309 309 309 308 307 306 306 306 306 306 305 305 305 306 306 306 307 310 313
319 319 318 317 316 315 315 314 314 314 314 315 314 314 313 313 311 311 311 311 311 310 309 309 308 308 309 308 307 310 310 310 309 308 307 307 309 310 311 312 314 317 316 314 314 314 312 311 309 307 306 308 309 309 309 310 310 310 308 306 306 306 305 305 305 305 304 304 303 303 303 303 304 306
321 320 319 320 319 317 317 316 316 316 315 315 314 315 314 313 312 311 310 310 310 309 309 308 308 307 308 307 308 310 308 307 307 309 308 306 306 309 310 310 312 313 315 313 314 314 313 312 311 309 309 309 309 310 310 311 311 311 310 307 306 305 304 304 304 304 304 304 304 303 303 302 302 303
320 319 319 321 322 325 327 328 327 324 322 317 314 314 314 314 312 312 311 310 309 308 308 308 308 306 306 307 307 306 304 305 306 307 308 308 308 309 309 309 309 312 312 311 311 313 314 312 312 311 310 310 309 309 310 311 312 311 309 307 306 305 303 302 302 303 303 303 303 303 302 301 301 301
319 321 320 323 327 328 327 327 320 314 316 321 321 317 316 316 314 312 311 310 309 308 307 307 306 306 305 306 306 306 307 308 308 307 307 306 308 306 307 307 308 311 311 309 309 311 314 314 312 312 312 313 314 311 310 311 311 310 308 306 305 305 304 302 302 302 302 302 302 302 301 301 301 300
319 319 320 320 324 326 325 324 317 313 314 312 311 313 317 321 317 314 313 311 310 309 309 309 308 307 306 307 307 307 308 308 308 308 308 308 307 306 304 304 306 307 312 310 307 308 308 314 311 312 312 313 313 313 312 309 309 309 307 306 305 305 304 303 302 302 301 301 301 301 301 300 300 299
319 319 320 320 321 321 322 323 323 321 316 311 309 307 308 308 309 313 315 315 313 312 311 309 309 308 308 308 308 307 307 308 307 309 309 307 306 305 304 303 304 305 313 309 307 308 304 312 312 310 312 312 313 314 311 308 307 307 307 305 305 304 304 303 302 302 301 301 300 300 299 299 299 299
319 319 319 319 319 320 325 325 322 320 320 316 313 312 309 310 307 301 301 306 316 315 313 312 312 311 310 309 309 310 309 309 309 307 306 306 306 306 306 306 305 306 313 309 306 305 305 308 309 308 309 310 312 314 310 308 307 306 306 305 304 304 303 303 302 302 301 300 300 299 299 298 298 298
316 317 317 317 317 318 319 319 320 320 319 318 318 318 318 318 319 312 303 302 303 310 314 313 313 315 315 313 312 314 312 310 309 307 306 307 306 306 307 308 308 308 312 309 305 302 304 304 307 307 308 308 308 312 311 308 307 306 305 304 304 303 303 302 302 301 301 300 299 299 299 298 297 297
313 314 315 315 316 317 317 318 316 315 315 316 317 317 317 318 319 319 319 318 317 315 314 315 315 316 317 317 317 317 315 312 313 311 310 309 309 308 308 307 306 307 310 308 307 306 304 302 305 307 308 309 307 308 309 308 307 306 305 304 304 303 302 302 302 301 301 300 300 299 299 297 297 296
310 311 313 315 315 315 315 313 299 304 311 314 315 315 315 315 316 317 319 311 311 318 319 318 317 316 316 312 315 316 316 316 315 317 317 312 309 307 306 306 306 307 309 309 308 304 303 303 306 305 306 305 307 305 307 307 307 306 305 304 303 303 302 302 302 301 301 301 300 299 299 297 296 296
309 310 313 314 313 313 314 305 294 296 309 310 310 311 311 312 312 313 316 310 305 303 303 304 304 304 304 303 303 302 301 305 310 311 310 311 310 307 305 306 303 305 306 307 309 307 304 303 304 304 302 305 306 306 307 305 304 305 304 303 303 303 302 302 301 301 301 300 300 299 299 297 296 297
307 309 315 316 311 310 311 298 293 293 305 306 306 307 308 308 308 309 311 314 315 307 303 301 300 300 300 301 301 301 301 301 305 308 307 309 309 308 307 306 306 305 305 307 309 305 304 303 303 302 300 300 301 305 307 304 302 303 303 302 303 302 302 301 301 300 300 300 299 299 298 297 297 296
305 306 309 313 311 309 307 296 295 295 303 303 303 303 304 305 304 306 308 309 311 313 315 315 314 309 307 309 309 311 305 303 309 308 309 311 310 308 308 308 306 305 305 307 309 307 303 304 303 304 301 301 300 299 303 303 302 302 303 303 302 302 301 301 300 300 300 299 299 299 298 297 296 297
302 303 304 307 302 299 298 298 297 296 296 298 300 301 301 302 302 305 306 309 311 311 312 313 314 316 317 317 315 314 313 313 314 310 309 311 312 311 310 310 308 306 307 308 310 308 306 306 303 305 306 301 300 302 300 301 302 302 302 302 301 302 302 301 300 299 299 299 299 298 298 297 297 296
300 301 302 303 304 299 298 297 295 295 295 296 299 299 300 302 305 304 303 305 310 308 309 310 311 311 312 314 315 315 315 314 313 312 308 311 312 311 310 309 308 308 310 310 306 310 307 306 305 303 303 302 298 301 302 301 301 302 303 303 303 301 300 300 299 299 298 298 297 297 297 297 297 297
299 299 301 302 303 298 296 294 294 294 295 294 301 301 297 296 295 299 304 304 304 305 306 307 307 308 309 311 312 313 314 315 316 314 313 310 310 312 312 311 309 308 309 312 302 311 309 306 307 304 302 301 302 299 301 300 300 302 302 302 302 302 301 301 299 298 298 298 298 297 297 297 297 297
298 300 300 303 304 295 294 294 294 295 295 300 300 295 295 295 293 297 299 300 301 302 303 304 304 305 307 307 309 310 312 314 315 315 315 314 312 311 312 313 313 312 314 312 310 313 311 308 307 308 305 304 304 299 300 301 299 299 302 302 302 301 300 300 300 301 299 299 299 299 297 297 296 296
299 298 298 299 294 293 294 294 295 295 298 298 296 296 296 297 300 299 299 298 299 301 301 302 303 304 306 307 308 310 311 313 315 316 315 315 315 314 312 312 312 313 314 314 312 312 313 311 308 308 309 306 305 303 301 299 300 302 302 302 303 302 300 300 301 301 301 300 299 299 297 296 297 295
299 296 294 293 294 294 295 296 297 298 299 296 296 296 298 307 302 302 298 299 300 300 301 302 303 304 306 307 309 311 311 312 312 311 313 314 315 315 315 314 312 312 313 313 313 312 313 312 311 310 309 308 306 305 304 303 302 302 302 301 301 304 303 302 302 302 302 300 300 299 299 300 299 298
295 294 294 295 295 297 298 301 299 299 301 297 297 298 302 302 302 302 302 301 301 302 302 303 304 305 306 308 309 310 310 310 310 311 311 312 312 312 312 311 312 312 313 313 313 313 311 311 311 310 308 306 307 306 304 303 300 301 301 303 303 302 303 303 302 302 302 301 301 301 301 301 301 299
296 298 298 296 295 297 297 297 298 298 299 299 300 300 300 300 301 302 302 302 302 303 303 304 305 306 306 308 307 308 308 308 309 310 310 310 311 311 311 310 310 311 312 313 313 313 311 311 312 311 307 307 306 306 306 306 304 302 302 304 305 303 303 304 304 303 303 303 302 301 301 300 299 300
297 298 298 298 300 299 299 299 299 299 299 298 298 300 300 300 301 305 307 306 302 301 302 303 303 304 305 305 306 306 306 307 308 309 309 310 310 310 310 309 308 309 310 311 311 312 309 311 311 311 311 309 307 307 305 305 306 305 304 304 305 305 303 304 304 304 304 303 301 300 301 301 300 300
297 297 299 298 298 298 297 297 298 298 298 298 299 299 300 300 300 299 300 300 300 300 300 301 302 303 304 304 304 305 305 306 306 308 308 308 308 308 308 308 308 307 308 309 309 310 310 312 310 310 310 311 311 309 306 303 304 305 304 303 304 305 304 305 305 304 304 302 302 302 301 301 301 301
293 295 296 296 296 296 296 296 296 296 297 297 298 298 297 298 299 298 299 299 299 299 299 300 300 301 302 303 303 303 303 303 304 305 302 306 307 306 306 306 306 308 307 308 308 308 308 308 308 308 308 307 309 310 309 307 306 305 304 304 305 305 306 306 306 306 305 305 304 302 301 301 301 300
295 294 295 295 295 295 295 295 295 295 296 296 297 298 298 298 297 297 298 298 298 297 298 298 299 299 300 301 301 300 299 299 301 303 304 305 305 306 306 306 306 306 306 307 307 308 307 307 306 305 305 305 306 308 306 310 308 305 304 304 305 306 305 305 306 305 305 305 304 303 302 301 301 295
293 293 293 294 294 294 294 294 294 295 296 296 297 297 297 297 297 297 297 297 298 297 298 297 296 297 298 299 298 297 297 296 298 299 301 303 303 303 304 304 304 305 306 306 306 308 307 307 306 304 303 303 302 302 305 305 306 308 304 303 304 305 306 305 306 306 305 304 304 304 302 301 301 295
292 293 293 293 293 294 294 294 294 295 295 296 297 297 297 297 297 297 297 297 297 297 297 296 295 295 296 297 296 294 295 295 295 297 298 299 301 301 301 301 302 303 304 306 307 307 306 306 306 305 304 302 301 300 303 304 303 305 309 306 305 306 306 305 305 304 305 306 304 304 304 303 301 296
292 292 292 292 293 293 293 293 293 294 295 296 297 297 297 297 297 297 297 297 298 298 298 295 293 293 294 294 293 293 293 294 294 294 295 296 296 296 297 298 300 301 303 304 305 306 307 306 306 305 305 303 301 300 301 301 303 305 304 308 306 305 305 305 304 304 304 303 304 303 303 302 300 296
292 292 292 292 292 293 293 293 293 293 294 295 296 296 296 297 297 297 296 296 297 298 297 294 293 292 292 293 292 291 291 291 291 292 292 293 294 294 295 296 297 299 300 301 304 305 305 306 305 305 305 304 303 303 304 300 298 305 306 304 308 305 303 306 305 306 304 300 293 290 290 290 291 291
293 291 292 292 293 292 292 294 293 295 294 294 295 295 296 296 297 296 296 296 296 297 296 294 293 292 292 292 291 291 290 290 289 290 291 291 291 292 293 294 295 297 299 300 301 302 303 304 305 305 306 307 308 309 307 297 292 296 303 304 303 306 306 307 305 304 301 301 296 295 291 291 289 288
293 292 292 292 292 292 292 292 293 294 293 295 294 295 295 296 296 296 295 296 294 297 295 293 293 292 291 291 291 290 288 288 288 289 289 289 289 290 290 289 294 297 297 297 299 301 302 305 304 296 301 307 306 304 298 297 298 295 298 302 301 301 302 304 307 306 302 299 299 298 294 293 290 287
293 293 294 294 293 294 292 292 294 294 294 294 294 294 294 294 293 294 294 293 296 296 294 292 292 290 290 290 290 288 288 287 287 287 288 288 288 289 289 291 293 294 293 293 296 299 303 306 303 304 305 305 303 298 297 294 294 293 293 294 294 294 296 298 299 303 306 302 299 291 289 289 290 288
293 294 294 294 295 294 294 295 295 295 295 295 294 294 293 293 293 293 294 295 296 294 292 291 291 290 290 289 289 288 287 287 287 287 287 287 287 287 288 290 291 291 292 293 296 299 301 302 303 304 304 304 300 299 297 296 295 292 292 293 295 292 293 297 300 300 299 300 301 300 300 295 291 290
293 293 294 295 295 295 295 295 295 295 295 295 295 295 294 293 292 293 294 295 293 291 291 289 289 289 289 289 288 288 287 287 287 286 286 287 287 288 289 289 289 289 291 293 295 297 298 299 300 301 301 296 297 296 297 296 294 291 293 291 288 290 291 291 295 295 294 292 290 291 295 299 299 301
294 294 294 295 295 295 295 295 294 294 294 294 295 295 294 294 293 293 294 292 290 290 289 288 288 288 288 287 286 285 285 287 287 286 286 287 287 288 288 288 287 288 290 293 293 293 295 296 298 299 300 299 298 296 295 293 293 290 290 289 290 289 290 291 293 292 292 289 289 290 291 294 294 295
Wind_Speed
5 4 6 6 6 5 3 4 5 5 3 3 4 4 2 3 1 1 2 3 1 3 2 1 2 3 4 5 6 4 4 5 5 3 3 3 3 3 3 4 6 7 6 4 3 3 3 6 8 9 9 10 14 14 12 14 16 20 22 21 21 20 19 19 22 21 19 21 25 26 25 23 21 20
5 5 5 4 6 6 4 5 4 4 5 4 4 4 3 5 3 3 1 4 3 3 2 1 1 4 6 5 5 1 4 5 3 2 3 3 4 4 4 3 4 5 6 5 5 4 3 3 4 5 6 7 9 8 15 17 19 21 20 17 14 11 9 18 21 19 21 24 26 25 25 23 22 22
5 5 5 4 6 6 6 5 3 4 4 6 4 4 4 4 4 5 3 1 4 3 2 3 2 2 3 5 4 4 4 3 2 2 3 3 5 5 4 6 5 4 5 6 4 3 3 3 4 4 3 2 1 0 7 11 15 16 14 14 13 12 12 16 19 19 20 23 24 24 25 23 23 23
5 5 5 6 6 6 5 5 5 6 6 5 6 5 5 4 4 4 4 4 7 4 4 4 6 4 4 4 4 3 3 3 4 3 4 4 4 4 4 7 7 7 6 6 6 5 4 5 6 5 4 4 3 3 3 2 4 1 6 9 11 10 13 17 19 22 23 24 24 24 25 26 24 24
5 6 6 7 7 5 5 6 6 6 6 5 5 4 4 6 4 4 4 4 7 5 3 4 5 3 2 3 2 3 4 4 4 4 3 3 3 3 3 4 6 8 7 6 6 7 5 5 5 5 5 5 3 2 2 2 4 3 3 4 5 6 10 14 18 21 24 24 24 24 24 27 28 26
6 5 6 8 8 6 7 6 6 7 6 5 6 6 6 6 7 4 4 6 4 7 3 3 3 4 2 3 2 4 4 6 5 5 4 2 2 3 4 4 4 7 7 6 6 7 7 6 5 5 6 6 3 3 3 3 4 4 4 5 6 6 6 7 9 14 18 22 23 24 24 26 24 24
7 5 6 8 8 5 5 7 7 6 6 6 6 8 6 7 8 6 6 5 5 7 7 4 3 3 3 4 6 5 5 5 4 4 4 4 2 3 3 5 3 6 9 10 9 9 6 6 5 5 6 6 5 3 4 4 5 5 5 6 6 7 6 7 7 9 12 14 19 21 20 19 19 22
7 8 7 8 8 7 6 7 7 7 6 6 7 7 7 7 9 8 6 7 7 6 7 5 5 4 3 5 5 5 4 4 4 4 5 3 4 3 3 4 4 6 10 11 9 6 6 7 6 6 6 6 5 5 4 5 5 6 6 7 7 7 6 6 7 7 8 9 11 13 13 13 17 19
8 7 8 9 7 6 7 7 7 7 7 8 7 8 7 8 8 7 7 8 7 7 8 7 5 4 3 5 5 4 5 5 3 4 5 6 5 3 4 4 5 4 7 7 8 7 8 7 8 8 7 7 6 5 6 6 6 6 7 7 7 7 7 6 6 6 6 7 7 8 9 9 9 12
4 5 7 7 6 6 8 9 8 8 9 8 8 8 8 8 7 8 7 7 7 7 8 7 7 5 6 5 4 4 3 4 5 5 4 4 3 3 2 4 4 4 4 5 5 6 7 9 11 9 8 7 7 7 8 8 7 7 7 7 6 7 6 6 6 7 7 6 5 5 5 5 7 8
5 4 3 4 5 7 8 8 7 7 8 8 9 10 10 9 7 8 8 7 8 8 8 7 7 7 6 5 6 6 2 3 4 5 4 4 5 3 4 5 3 2 3 4 6 7 8 6 6 7 8 8 8 8 9 9 9 8 8 7 7 7 7 6 6 6 6 5 4 3 2 3 4 5
4 3 3 1 3 5 6 6 7 6 7 7 8 7 7 8 8 8 8 7 7 7 7 8 8 7 7 5 5 4 2 3 4 4 6 7 6 7 6 6 5 3 3 5 4 5 4 4 6 6 7 10 11 10 9 11 10 10 9 9 9 9 8 7 6 6 6 5 4 2 1 2 3 4
4 2 2 2 3 4 10 11 8 8 8 5 4 5 3 6 6 7 7 8 8 7 7 8 6 6 6 7 6 6 5 6 8 5 4 7 7 6 6 6 4 3 4 4 4 4 6 5 5 5 5 6 8 10 12 9 13 13 10 11 10 9 8 8 7 6 5 4 4 3 3 3 4 4
2 3 3 4 8 9 9 10 6 3 4 6 4 2 2 3 4 5 6 7 7 7 8 9 7 7 8 8 7 7 8 6 4 3 3 5 8 3 5 5 5 4 4 4 5 6 4 6 5 4 6 5 6 5 6 8 9 12 13 12 11 10 9 8 7 6 5 5 4 4 4 5 5 5
6 6 4 3 5 6 6 3 4 4 4 6 6 9 10 6 5 4 7 6 3 5 7 6 6 8 9 8 7 8 8 5 6 6 5 7 5 6 6 8 5 2 7 5 4 4 3 6 6 5 6 6 5 5 7 12 13 13 13 13 11 11 10 9 7 6 6 5 5 5 5 5 5 4
5 6 7 6 4 4 6 7 5 6 12 14 10 10 12 13 13 14 12 8 7 6 7 8 7 6 8 8 6 7 4 7 6 6 6 6 7 7 7 5 6 5 7 6 4 7 2 5 6 5 7 6 7 8 11 14 14 14 13 13 12 11 11 10 9 8 8 7 7 7 6 5 4 3
7 7 7 7 7 6 11 9 6 6 7 9 12 8 12 15 15 14 14 13 10 7 8 8 10 8 7 8 8 6 5 4 6 4 5 5 6 8 9 9 7 6 6 6 5 6 5 6 6 7 7 7 6 7 11 14 14 13 13 13 14 13 12 11 10 9 9 8 8 8 7 6 5 4
7 7 7 7 8 7 6 6 6 6 6 6 7 7 7 6 9 10 12 13 15 12 10 9 11 11 8 11 10 7 4 5 7 6 7 6 7 8 11 12 10 5 5 9 5 3 6 4 5 7 7 5 4 6 10 15 15 15 15 15 15 15 13 11 10 9 9 8 8 8 7 6 5 4
6 6 6 6 6 7 6 5 9 7 7 7 6 7 7 7 7 7 7 7 7 8 10 11 12 11 9 10 10 8 3 7 7 6 7 8 9 7 4 3 3 4 5 4 5 7 4 2 4 7 7 5 6 6 8 13 13 14 14 15 15 14 12 11 11 10 9 8 8 8 8 7 6 5
6 6 7 6 7 6 5 8 11 8 6 6 8 8 7 6 6 6 8 12 12 10 9 9 11 11 12 13 11 10 8 8 8 7 5 2 1 3 6 8 5 7 5 6 7 4 4 4 8 7 6 4 6 4 5 8 12 14 15 15 15 15 14 13 11 11 10 9 8 8 8 8 6 6
7 7 7 7 7 6 4 6 8 8 7 5 6 7 8 7 7 8 7 10 13 15 16 16 18 17 16 16 17 16 17 11 8 5 6 9 5 6 7 7 6 7 5 5 7 6 5 4 7 6 3 4 6 5 6 5 7 11 13 15 16 16 14 12 12 11 10 10 9 9 9 8 7 6
7 9 16 12 7 7 7 7 9 9 8 8 7 7 8 9 9 10 8 6 7 11 13 14 16 17 17 18 18 17 15 16 8 6 12 10 4 6 6 9 7 5 4 7 7 4 7 3 4 4 3 1 3 5 5 4 3 6 8 12 13 13 12 12 11 10 11 11 10 10 9 7 5 2
6 6 7 11 8 7 9 13 12 10 7 7 7 7 7 9 10 11 8 8 8 7 7 7 6 7 10 10 11 11 17 17 14 10 13 8 8 10 9 8 6 7 6 7 8 8 6 5 5 5 1 2 5 2 2 3 4 4 4 6 7 9 10 11 11 11 12 11 11 10 8 6 5 2
9 7 7 8 11 13 14 14 15 16 13 6 8 5 6 7 11 8 7 9 8 8 8 8 8 9 8 6 6 7 9 9 8 10 10 10 11 12 11 11 10 11 8 3 10 9 5 5 6 6 7 5 3 2 1 2 3 4 4 5 6 8 9 8 8 11 11 10 10 9 8 7 6 3
7 9 9 8 12 15 15 17 18 18 17 10 6 6 6 7 9 10 9 11 13 8 8 8 8 8 7 7 7 6 5 6 6 6 9 10 10 11 11 10 12 12 11 6 12 9 7 5 6 4 4 3 3 1 1 1 2 5 6 7 7 5 6 6 4 5 7 8 9 9 8 8 8 5
7 7 8 9 13 18 18 18 17 17 16 17 7 7 10 13 12 10 8 8 7 7 7 7 8 8 7 8 7 7 7 7 8 7 7 9 11 11 11 11 12 11 12 6 14 10 7 4 7 5 4 4 5 4 2 2 3 4 4 5 5 5 7 7 5 5 5 5 6 7 7 8 7 7
8 8 8 9 16 18 18 17 17 16 17 11 11 16 14 12 10 7 4 4 5 6 6 6 7 8 7 7 7 7 7 8 8 8 7 7 8 10 11 11 12 13 11 4 8 9 7 7 6 10 9 7 6 4 5 5 2 2 2 5 6 5 5 6 7 7 6 6 6 7 7 5 7 8
7 8 8 11 16 16 16 16 15 14 13 11 16 16 16 14 8 3 3 3 4 4 6 6 6 7 7 6 7 7 6 7 8 9 8 7 8 9 9 11 13 13 12 11 8 10 10 11 7 8 9 8 7 7 6 4 1 6 7 3 4 5 5 6 6 5 5 5 5 5 4 5 4 5
7 10 13 13 13 13 13 14 13 11 14 17 16 17 17 15 10 9 7 6 4 6 6 6 7 7 7 6 7 8 8 8 8 6 7 7 7 8 10 9 9 10 11 10 10 10 10 10 11 8 7 8 8 7 6 7 7 6 6 7 3 7 8 8 7 8 7 6 6 6 8 7 6 6
13 13 12 13 13 12 12 9 8 8 10 14 16 16 15 10 9 9 9 8 6 6 7 7 7 8 8 8 8 8 7 7 7 7 7 6 6 6 7 7 7 8 10 10 10 10 11 12 12 11 8 7 8 10 9 8 6 6 8 9 6 3 5 6 7 7 6 7 7 8 7 6 7 7
9 9 8 7 8 7 11 10 9 10 12 11 11 9 8 8 8 8 7 6 7 7 7 7 8 8 8 7 7 7 7 8 8 6 7 7 7 6 6 6 7 7 7 8 9 10 10 10 11 11 8 9 10 11 9 9 9 7 8 7 8 8 7 9 8 8 8 7 6 5 3 5 5 6
6 5 6 7 7 7 8 8 7 8 7 8 8 9 8 8 7 8 10 10 8 7 5 5 6 6 7 8 8 7 7 7 8 7 7 7 7 6 6 4 5 5 6 5 6 8 10 10 12 9 10 11 11 9 6 8 10 9 8 8 8 5 6 10 9 9 8 6 4 6 7 7 8 7
6 7 9 9 9 9 8 9 9 9 8 7 7 8 9 8 8 8 8 9 9 8 8 9 9 9 8 8 7 8 8 9 9 8 8 7 6 7 4 6 6 5 6 6 5 6 6 9 9 11 10 10 11 8 8 7 7 7 9 8 8 7 6 6 9 9 8 7 8 7 7 6 7 7
5 6 7 7 7 8 8 9 9 9 9 9 9 7 8 8 8 8 8 8 8 8 7 7 8 9 8 8 9 9 9 10 9 9 8 8 7 7 7 7 7 6 5 6 6 6 5 6 5 6 6 5 4 7 9 10 9 8 7 7 9 9 8 7 8 8 11 11 11 8 7 7 8 7
6 5 6 6 6 6 6 6 7 7 8 8 8 8 7 6 7 7 7 8 8 7 7 8 8 8 8 9 9 9 9 10 10 9 9 8 8 7 8 8 7 7 7 7 7 5 5 5 5 5 5 6 7 8 8 10 8 8 6 7 8 9 8 8 8 8 10 8 7 10 9 7 8 6
5 4 4 5 5 5 6 6 6 6 7 7 7 8 8 8 6 7 7 8 7 6 7 8 8 9 9 9 8 9 9 9 9 9 10 9 9 9 8 7 7 7 7 7 7 6 4 5 5 7 8 7 8 9 10 14 15 8 9 8 7 8 8 8 9 8 9 9 9 9 9 10 9 7
4 3 3 4 3 5 5 5 5 6 6 6 7 7 7 8 8 7 7 6 6 5 6 7 8 9 9 9 9 8 9 9 10 9 9 10 9 9 8 9 9 8 8 7 6 7 4 5 5 7 8 8 9 11 11 3 15 17 11 10 8 9 10 8 8 8 9 10 10 10 11 9 8 7
3 3 3 3 4 4 4 4 5 5 6 5 6 6 6 7 7 8 7 7 7 5 5 6 7 9 9 9 10 11 10 9 9 9 9 9 11 11 10 10 10 9 9 9 7 6 5 5 5 6 7 8 8 9 9 3 1 8 13 12 11 10 9 8 8 10 9 7 9 9 6 8 7 6
3 3 3 3 4 3 3 3 4 5 5 5 6 6 7 7 7 7 7 7 7 7 5 6 7 8 8 8 8 9 10 11 11 10 10 10 10 11 11 10 11 10 10 9 8 7 4 5 5 5 6 7 9 8 8 6 8 6 7 15 11 9 9 11 11 10 8 8 4 6 7 5 10 13
6 4 3 3 5 3 3 3 3 4 5 5 5 5 6 7 7 7 6 7 7 6 4 5 7 6 6 7 7 8 9 10 10 10 10 11 10 10 10 10 11 11 10 9 9 8 6 5 5 5 6 7 8 7 6 4 1 1 2 4 10 13 11 11 12 10 7 7 8 8 6 4 4 1
6 6 6 4 5 4 3 3 3 4 5 5 4 5 5 6 6 6 6 7 6 6 3 3 4 5 6 6 6 7 9 9 10 9 10 11 10 9 11 11 10 9 10 11 9 9 8 7 9 11 9 6 5 1 0 1 3 2 4 6 7 6 9 12 10 10 8 9 10 10 9 8 7 6
8 7 7 7 6 6 4 5 5 5 5 5 5 5 5 5 6 7 7 7 6 5 3 5 6 5 5 5 6 6 8 9 10 11 9 10 12 11 10 9 10 10 10 11 12 11 10 10 10 9 6 5 4 4 6 5 5 4 3 3 4 2 2 6 8 8 12 12 10 6 5 5 5 4
7 7 7 7 7 7 7 7 6 6 6 6 6 5 5 6 6 6 6 6 6 4 4 5 5 5 6 5 5 6 7 8 9 10 11 10 11 12 11 10 10 11 11 10 10 10 10 10 10 9 7 5 4 5 6 6 6 4 3 3 6 2 1 3 3 3 12 18 17 14 15 12 8 5
7 7 6 6 6 6 6 7 7 6 6 6 6 6 6 6 6 7 6 3 3 3 4 5 5 6 6 6 7 6 6 7 9 9 10 9 10 11 11 11 10 12 10 10 10 9 9 9 9 9 8 5 3 3 5 5 4 4 5 3 1 1 3 3 7 10 10 11 14 12 5 8 4 12
6 6 5 5 5 5 6 6 6 6 7 6 6 6 7 6 6 6 4 1 3 4 4 5 5 6 7 6 7 7 7 8 9 8 8 8 8 8 9 10 9 10 9 9 10 10 9 9 9 9 8 7 4 4 5 4 4 3 3 4 5 3 4 5 8 8 7 3 10 13 6 3 4 10
Wind_Direction
221 226 234 227 243 254 212 225 229 227 229 221 191 172 161 157 123 311 323 284 280 307 17 34 286 342 356 331 306 300 239 228 214 202 196 210 218 229 237 245 272 292 296 309 297 292 232 211 223 235 240 229 232 219 222 227 222 232 232 234 233 232 230 228 227 227 223 225 225 223 223 222 220 213
209 215 231 237 249 257 250 233 229 226 220 231 200 203 175 144 153 178 220 280 230 264 307 212 275 328 325 318 314 323 271 234 212 193 210 220 223 208 200 244 264 288 298 299 305 319 316 272 245 236 237 225 232 218 218 222 219 230 237 243 243 243 237 235 233 230 221 223 228 225 227 226 220 217
210 216 227 229 238 252 250 244 234 234 229 233 230 219 172 187 167 171 168 262 283 186 256 285 237 237 282 298 307 284 254 295 286 214 221 236 243 194 193 207 221 242 268 285 291 314 308 280 275 273 270 276 323 263 220 223 226 230 232 232 234 235 222 233 239 239 244 233 227 227 225 224 225 219
215 221 232 232 229 238 237 248 228 225 232 229 227 232 214 218 191 164 171 210 264 233 227 257 287 255 255 276 291 268 282 285 242 227 217 228 213 203 218 196 208 221 232 251 263 261 258 259 266 277 276 270 264 246 203 119 84 220 227 232 233 228 236 233 228 232 233 238 232 230 230 225 223 223
227 226 231 241 240 227 223 235 232 227 227 224 231 230 219 237 218 180 192 217 261 291 240 241 249 264 236 301 204 234 253 268 270 254 247 217 193 220 227 207 205 219 226 230 254 263 254 257 275 286 269 251 237 238 245 175 179 193 187 197 219 212 218 235 237 231 233 236 238 238 236 232 226 223
232 223 225 242 247 228 221 226 227 221 219 211 218 232 219 228 238 215 187 219 218 264 304 293 287 283 224 248 250 208 240 258 249 265 268 257 217 218 224 219 221 209 219 220 237 250 260 256 258 264 264 259 242 196 222 242 241 243 231 218 223 223 226 231 238 244 241 239 241 242 242 241 233 229
231 226 225 235 238 233 226 232 229 223 219 207 208 225 217 226 233 223 207 204 235 249 265 240 261 252 261 215 258 250 235 245 247 265 278 267 270 241 226 226 230 200 206 210 218 228 233 249 255 264 268 283 284 218 223 225 228 234 248 253 252 250 242 241 246 250 251 250 246 246 247 237 230 238
224 223 227 237 233 229 227 237 234 230 223 211 216 221 223 220 228 226 209 212 215 228 244 271 245 254 249 273 255 264 271 258 270 240 263 275 265 252 247 235 235 203 197 207 212 209 226 233 232 235 244 261 275 272 249 242 239 231 228 235 245 253 256 250 251 252 250 251 261 272 276 258 237 233
229 229 229 239 232 221 223 236 234 230 225 226 216 220 221 217 225 226 214 219 214 223 234 254 253 246 248 247 264 253 262 286 272 266 250 251 255 250 231 225 232 217 183 198 204 202 221 228 231 229 227 231 246 248 250 244 242 244 244 247 246 249 255 261 267 269 267 265 261 257 262 272 269 241
262 252 254 257 251 234 222 230 230 227 229 228 224 224 223 220 219 223 226 221 220 222 237 237 262 259 249 278 260 243 199 238 287 298 281 281 260 242 268 246 226 210 189 195 200 208 217 222 224 227 226 221 228 237 241 244 238 241 247 244 245 249 251 247 251 259 266 263 265 275 276 265 258 259
253 259 267 281 290 281 264 252 243 242 239 231 231 227 227 224 216 222 225 219 219 221 232 243 237 251 258 229 262 269 177 223 225 252 285 276 269 255 209 234 253 226 215 232 214 210 209 197 200 211 214 219 221 231 237 243 240 236 236 236 238 242 244 238 236 246 252 262 273 269 265 281 281 275
268 259 234 204 251 259 268 261 258 265 262 258 256 248 234 229 224 229 229 224 221 224 227 228 233 226 244 264 246 276 327 296 293 233 220 238 248 243 236 222 207 211 196 212 227 236 219 221 212 208 207 219 222 227 238 240 239 235 233 231 232 233 236 236 240 245 257 264 262 268 285 247 234 240
199 208 209 233 267 272 277 283 279 250 248 246 258 276 292 286 269 257 240 228 220 225 222 236 234 241 242 244 256 271 255 225 236 236 192 237 240 239 243 258 239 199 183 219 212 216 201 204 215 207 219 216 211 227 228 237 235 231 228 228 227 227 229 233 232 234 235 242 251 252 240 242 251 249
297 263 236 229 260 273 280 286 317 321 253 231 233 269 257 248 262 262 269 258 240 226 222 227 217 225 234 233 224 232 243 239 244 256 211 228 244 254 261 287 270 214 186 197 212 233 200 191 204 183 228 230 207 211 205 222 217 219 219 220 220 220 226 227 226 224 227 226 226 219 216 222 230 235
315 306 294 282 293 298 294 254 210 204 257 267 238 248 256 238 214 251 262 260 276 271 261 257 230 222 231 232 220 223 236 234 220 227 213 223 221 207 214 239 291 256 180 210 211 255 221 166 192 208 222 218 198 200 221 225 221 219 211 211 212 215 219 219 215 207 208 217 227 227 225 223 223 229
310 309 311 312 310 293 287 295 284 279 286 282 260 215 242 247 232 214 219 231 237 237 253 260 253 245 246 245 224 235 223 242 235 229 220 217 209 214 217 218 211 243 176 187 175 235 260 181 193 208 222 214 202 204 216 221 221 221 210 205 209 211 213 210 205 201 201 204 209 212 212 211 220 238
334 329 325 324 319 308 312 314 310 302 295 302 306 280 223 231 233 226 229 226 227 225 232 238 251 235 250 264 253 228 217 200 227 213 208 220 218 213 215 221 225 256 190 164 185 213 237 176 191 207 230 210 201 207 218 223 221 220 212 204 205 207 209 205 204 202 200 199 204 205 199 197 202 206
344 335 329 324 317 317 321 318 324 328 318 316 312 311 305 294 279 252 231 232 233 231 233 234 241 242 219 239 255 259 237 220 232 218 229 213 217 218 221 219 213 226 157 187 170 228 260 220 197 231 251 213 200 206 213 217 217 213 211 206 203 205 205 201 202 203 202 197 203 213 207 196 190 185
351 345 335 328 318 317 322 339 359 349 336 326 314 309 308 303 295 288 277 263 247 237 239 239 243 249 248 245 246 257 247 246 246 217 218 211 212 221 249 321 281 259 230 189 146 226 233 184 189 234 239 237 214 204 220 218 216 213 210 206 205 204 201 199 199 201 202 200 203 210 209 197 187 179
351 346 346 353 349 339 339 1 8 12 346 338 329 318 310 300 290 282 264 259 257 249 246 245 245 244 239 252 257 257 251 259 276 288 291 322 178 198 213 227 224 226 220 196 179 219 241 204 186 236 244 242 251 212 207 220 213 209 205 201 201 200 199 196 194 198 202 202 206 213 216 204 185 177
349 349 353 356 351 347 353 357 2 355 353 336 323 311 306 300 298 289 284 265 257 256 254 249 252 255 253 248 247 244 248 239 235 272 291 260 232 227 226 236 224 233 204 214 201 191 233 205 186 232 263 211 239 247 227 208 215 208 201 198 200 199 197 190 193 194 200 204 208 218 223 216 192 177
342 341 348 352 352 339 324 330 333 340 345 333 321 311 304 302 299 293 289 290 275 261 253 248 248 252 254 256 259 260 256 251 234 195 236 237 229 239 225 242 223 240 224 222 178 166 230 177 181 198 286 322 252 238 239 200 191 190 199 202 203 201 193 189 191 190 200 206 210 219 221 221 206 175
340 328 330 330 327 312 303 305 306 320 337 318 309 301 296 290 286 279 296 297 297 304 308 295 278 261 254 252 254 250 250 246 236 216 233 224 221 240 237 244 257 256 243 225 167 198 237 168 225 160 125 263 277 260 246 201 176 163 171 182 193 201 195 195 189 191 201 207 214 220 216 202 194 199
333 329 321 319 316 315 314 315 318 320 323 315 296 289 277 276 279 286 300 291 293 299 295 292 294 290 290 262 242 246 254 249 231 213 221 223 222 231 234 232 231 239 239 201 177 202 231 175 213 193 185 189 256 270 356 247 191 174 164 168 195 202 196 195 201 200 203 209 218 224 215 194 187 195
323 323 324 319 319 324 329 328 323 321 319 318 295 283 267 256 274 303 298 292 296 293 292 290 288 289 290 290 287 277 265 258 247 217 212 217 217 222 229 227 233 244 244 219 198 196 221 183 209 164 210 194 205 197 257 253 249 195 191 188 195 176 175 197 185 197 209 215 221 227 222 198 194 192
322 318 316 317 320 330 331 325 323 322 324 324 317 290 272 274 281 283 280 291 300 297 295 296 299 299 301 303 300 292 286 275 261 237 220 216 221 222 223 223 225 240 245 209 188 209 204 201 205 174 174 174 254 204 222 267 232 208 181 198 201 187 182 182 183 199 196 200 211 217 220 207 194 202
314 314 315 315 327 329 324 324 326 329 333 339 338 328 327 314 299 285 282 285 294 297 299 304 301 299 298 300 297 294 293 286 281 274 252 228 218 225 229 229 229 236 241 212 197 210 208 231 191 194 203 188 199 205 212 221 238 141 176 202 204 193 181 171 192 201 195 197 209 211 219 202 190 194
311 315 323 323 319 318 323 326 330 331 341 347 344 353 350 351 350 335 314 314 294 300 306 305 302 300 297 295 291 290 287 288 288 278 274 268 245 228 226 226 228 234 237 236 218 218 214 215 206 204 184 175 190 196 220 229 132 178 191 173 186 193 178 188 200 202 198 189 188 194 190 219 198 173
320 312 315 318 322 325 328 335 341 349 353 352 354 358 4 8 8 358 345 326 327 325 317 306 300 296 296 291 286 294 298 295 289 279 273 261 257 251 246 239 224 229 233 229 219 209 219 223 226 217 196 202 214 219 199 215 183 203 183 144 194 204 196 193 195 198 198 185 196 188 205 202 196 184
322 333 337 333 340 344 346 349 357 354 352 350 1 4 8 12 7 6 0 350 349 335 319 315 307 304 306 310 310 304 302 304 300 299 289 284 271 260 257 255 245 231 231 228 222 215 214 220 225 228 216 214 212 228 216 205 210 198 168 187 182 101 184 184 198 205 188 197 199 202 209 198 202 174
340 333 335 320 320 337 345 355 359 6 0 4 4 5 2 5 7 3 9 356 348 337 328 324 319 314 308 306 317 324 327 319 312 306 296 292 287 279 272 267 271 266 242 233 229 222 219 215 222 219 189 208 222 228 219 204 209 182 193 194 160 183 192 181 195 197 202 200 195 206 187 198 215 205
325 323 326 358 17 9 10 5 9 8 6 3 359 360 358 359 359 358 356 4 5 355 336 321 321 326 333 339 334 330 328 323 318 320 314 304 299 288 279 264 264 264 273 249 245 227 216 206 213 212 201 204 215 219 206 205 209 196 192 190 199 199 144 175 188 200 196 174 166 209 209 201 209 207
349 11 16 15 11 15 8 8 5 2 3 6 1 360 357 355 358 2 5 2 355 345 352 359 353 349 349 347 348 345 341 340 331 331 328 321 315 308 292 280 278 279 284 280 251 246 221 221 208 211 209 216 220 210 190 204 222 201 188 185 186 194 187 192 181 185 155 161 204 207 218 215 214 206
35 23 26 17 12 9 11 7 4 357 354 355 356 358 355 353 357 359 357 355 348 346 353 353 359 353 348 351 353 351 347 336 336 334 338 329 326 322 318 309 306 306 297 291 280 258 245 227 210 223 234 237 230 208 208 216 215 208 203 180 181 195 200 180 191 170 167 183 187 196 217 227 220 204
37 24 30 8 11 7 9 13 358 353 350 348 346 346 346 346 350 351 355 348 342 347 353 355 358 355 354 351 351 350 346 338 332 336 338 335 335 337 329 321 317 316 311 304 293 269 244 240 191 185 201 218 242 254 215 210 216 206 194 202 188 194 195 187 178 174 180 189 176 191 207 218 222 202
23 24 30 16 8 355 10 357 353 352 349 342 342 338 341 343 344 350 350 339 340 344 358 359 358 356 355 352 350 348 343 339 339 340 339 342 337 333 330 325 318 312 306 299 296 287 253 250 208 203 202 201 208 230 243 214 206 204 187 200 197 202 199 181 185 176 176 184 184 185 193 207 211 192
32 6 15 11 350 4 2 351 351 344 343 343 340 339 337 334 335 337 331 328 338 341 7 8 5 356 353 352 346 347 343 344 339 334 335 336 336 332 328 327 324 320 314 308 296 285 253 240 226 222 219 213 212 224 234 187 213 214 197 203 199 199 191 180 169 182 193 184 185 189 198 196 206 191
16 350 357 346 351 351 351 350 344 342 336 337 337 332 335 330 329 331 331 337 339 339 19 22 12 2 355 355 351 346 342 339 333 332 335 336 338 338 335 327 322 321 317 309 306 296 265 242 223 226 228 227 226 223 241 238 181 233 216 207 206 195 188 172 179 189 192 194 183 191 180 198 210 176
357 343 343 335 337 341 347 335 338 334 329 332 338 336 331 331 333 333 334 335 339 345 19 19 11 359 348 349 348 343 341 338 337 333 332 333 332 330 328 327 323 320 316 311 312 310 291 268 250 239 227 247 240 233 228 209 224 229 220 212 205 171 180 183 190 189 174 160 111 73 52 62 70 87
341 335 317 326 319 320 320 318 329 321 325 327 329 333 332 330 333 333 332 331 333 331 9 17 354 341 342 343 342 340 335 335 331 328 327 325 323 321 319 317 314 311 314 313 313 312 310 290 268 267 258 252 266 272 246 201 173 203 142 190 186 170 182 184 183 168 165 156 134 127 125 123 120 131
334 330 318 307 314 312 306 306 300 309 312 314 314 317 320 321 322 324 323 322 320 326 358 348 342 342 334 337 340 340 333 329 330 325 323 321 317 316 312 310 310 317 322 319 317 312 311 313 294 279 266 262 259 114 8 242 239 154 198 208 183 193 192 186 170 170 164 155 159 157 157 165 150 140
337 330 322 326 323 315 305 308 310 306 305 303 305 304 306 307 300 300 309 311 317 334 3 347 337 331 325 328 333 336 332 327 326 323 320 320 319 315 314 316 318 327 326 319 317 313 311 310 308 300 276 259 234 216 242 214 220 221 223 212 231 350 355 275 256 194 157 154 141 123 104 74 78 119
354 348 343 338 334 329 330 325 320 317 307 305 300 298 299 301 302 304 310 318 339 354 350 329 325 325 323 323 323 324 320 318 320 317 315 313 315 314 313 316 320 318 311 306 306 307 308 316 316 311 294 253 234 212 237 230 227 212 209 206 207 259 352 24 82 179 169 166 168 173 173 159 137 179
348 346 341 342 343 342 340 335 328 325 320 314 306 301 300 299 302 302 304 332 346 319 319 320 319 320 318 317 316 313 313 313 311 306 305 306 306 308 309 312 312 310 308 306 308 308 315 315 316 314 300 273 247 228 243 242 230 209 198 172 90 108 125 78 90 86 75 45 21 2 320 189 206 189
336 333 329 331 337 337 336 330 331 326 323 316 317 320 312 306 298 297 296 302 296 313 316 318 320 313 314 310 318 318 315 308 303 294 288 291 297 303 306 309 305 303 301 304 306 309 315 316 314 318 309 289 262 224 244 233 245 173 169 161 186 174 172 159 142 145 133 101 4 358 353 19 81 112